Dewpoint
8 11 15 14 12 12 8 6 4 3 2 3 4 8 11 9 10 9 8 9 10 12 16 19 23 25 26 27 28 29 29 29 29 30 30 31 31 31 32 33 34 34
4 6 8 9 9 7 4 2 1 2 1 1 3 8 9 8 7 7 7 7 7 10 15 20 23 26 27 28 28 29 29 29 29 30 30 30 30 31 32 33 34 34
-2 -3 -2 -2 -1 1 1 2 2 1 0 0 3 8 8 7 6 6 6 6 9 14 18 22 24 26 27 27 28 28 29 29 29 29 29 29 30 30 32 33 34 34
-2 -1 1 1 0 0 -1 -2 -3 -4 -2 6 5 4 5 6 7 7 8 10 16 22 22 23 24 25 26 27 27 28 28 29 29 29 29 29 29 29 31 33 34 34
-1 -4 -5 -5 -3 -4 -3 -3 -3 -2 2 3 2 3 6 8 9 10 13 18 19 20 23 24 25 26 26 26 27 28 29 29 28 28 28 28 28 29 30 32 33 33
-6 -6 -6 -4 -4 -4 -2 -0 2 2 2 2 2 4 4 5 5 6 7 8 11 17 22 25 25 26 27 27 27 28 29 28 27 27 27 27 28 28 29 31 32 32
-6 -7 -7 -6 -3 -2 -4 -6 -6 -3 -3 -2 0 0 0 1 1 5 5 5 7 15 19 21 23 26 27 27 27 28 28 27 27 27 27 27 27 27 29 30 31 31
-6 -8 -9 -6 -6 -8 -8 -8 -6 -5 -3 -4 -3 -1 1 2 3 4 5 5 7 14 19 20 23 25 26 27 27 27 27 27 27 26 27 27 28 28 28 30 31 31
-7 -8 -9 -9 -9 -9 -8 -8 -7 -6 -3 -3 -3 -1 2 4 4 5 5 6 11 17 20 19 17 18 22 26 27 27 27 27 27 27 27 27 27 28 28 29 30 31
-8 -9 -10 -9 -9 -9 -10 -10 -9 -8 -4 -5 -3 1 3 5 6 6 6 12 15 16 13 13 13 14 16 20 24 27 27 27 27 27 27 26 25 26 27 27 28 29
-9 -10 -11 -11 -11 -11 -11 -11 -9 -9 -6 -3 0 3 5 5 7 9 10 11 10 9 9 10 11 12 14 15 18 22 27 28 28 27 27 26 25 25 27 26 26 27
-10 -11 -11 -11 -10 -9 -10 -9 -7 -6 -4 -2 0 0 2 2 4 7 8 7 7 7 8 10 11 11 13 14 16 19 22 26 26 25 24 24 24 25 25 25 26 26
-10 -10 -10 -9 -9 -8 -7 -5 -5 -4 -3 -2 0 1 2 2 4 4 6 6 7 7 8 9 10 11 13 15 16 18 21 23 24 24 23 23 23 24 25 25 25 26
-9 -8 -8 -7 -6 -4 -4 -4 -3 -3 -2 -1 1 1 2 3 4 5 5 6 6 7 8 10 11 12 14 15 17 19 21 22 23 23 22 22 23 24 24 25 25 26
-6 -5 -5 -4 -4 -4 -4 -3 -3 -2 -1 -0 1 3 3 4 5 6 6 6 6 7 8 10 12 13 14 16 18 19 21 22 22 22 22 22 22 23 24 25 25 26
-4 -3 -3 -3 -3 -3 -2 -2 -2 -1 0 1 3 3 4 4 5 6 6 7 7 8 9 10 12 13 16 20 21 20 20 22 22 22 22 22 22 23 24 25 25 25
-3 -3 -2 -2 -2 -1 -1 -0 0 0 1 2 3 4 4 6 6 7 8 8 9 10 10 11 12 14 19 21 23 24 23 23 23 23 23 23 23 23 23 24 24 25
-2 -1 -1 -1 0 -0 0 1 2 2 2 3 5 5 6 6 7 8 9 10 11 12 12 13 14 18 21 23 24 25 25 24 24 24 25 25 24 24 24 25 25 25
-2 -1 0 0 1 2 2 3 4 4 4 5 5 6 7 7 8 9 9 10 11 12 12 14 15 19 22 23 25 26 26 25 24 25 26 26 26 26 25 25 25 25
-0 0 1 2 2 3 3 4 4 5 5 6 6 7 8 8 8 9 10 10 11 12 13 14 16 19 22 24 25 26 27 26 25 26 27 28 28 27 27 26 26 25
0 1 1 2 3 3 4 4 5 5 5 6 7 7 7 8 8 9 10 11 12 13 14 15 16 21 23 25 26 28 28 28 27 28 28 28 29 29 28 28 27 27
1 2 2 3 3 3 4 4 5 5 6 6 7 7 8 9 10 10 11 12 13 14 14 15 17 23 25 26 28 29 30 29 29 29 29 29 29 29 29 29 28 27
1 1 2 3 3 3 4 4 5 5 6 7 7 8 8 8 9 10 11 12 13 14 15 16 18 22 26 27 28 30 30 30 29 29 29 29 29 30 29 29 29 29
1 2 2 3 3 3 4 4 5 6 6 7 7 7 8 9 10 11 12 13 14 15 17 18 21 24 27 28 30 30 30 28 28 27 26 26 26 26 27 28 29 30
1 2 2 3 3 4 4 5 5 6 7 8 8 9 9 10 12 13 14 17 19 21 22 23 22 23 25 27 30 29 29 29 29 27 26 24 24 24 25 26 26 29
2 2 2 3 3 4 5 5 6 7 8 8 9 9 10 11 13 14 15 17 19 21 23 22 21 21 23 27 28 28 26 26 27 27 26 26 26 27 27 26 26 26